{"data":{"norad_id":68489,"epoch":"2026-09-19T15:14:36.224736Z","epoch_age_seconds":143558,"freshness":"FRESH","line1":"1 68489U 26067CB  26262.63514149  .00002350  00000+0  23660-3 0  9996","line2":"2 68489  97.7634 219.3174 0003746 100.2327 259.9314 14.92119981 25808","mean_motion":14.92119981,"eccentricity":0.0003746,"inclination_deg":97.7634,"raan_deg":219.3174,"arg_perigee_deg":100.2327,"mean_anomaly_deg":259.9314,"bstar":0.0002366,"rev_number":2580,"period_min":96.506984581423,"perigee_km":588.71567447275,"apogee_km":593.93719647861,"semimajor_km":6969.4634354757,"source":"CELESTRAK","updated_at":"2026-09-20T09:00:24.253997Z"}}